Regional Weather Roundup
Issued by NWS

Home | Current Version | Previous Version | Graphics & Text | Print | Product List | Glossary On
Versions: 1 2 3 4 5 6 7 8 9 10 11 12 13 14 15 16 17 18 19 20 21 22 23 24 25 26 27 28 29 30 31 32 33 34 35 36 37 38 39 40 41 42 43 44 45 46 47 48 49 50
000
ASUS44 KMEG 181300
RWRTN
TENNESSEE HOURLY STATE WEATHER ROUNDUP
NATIONAL WEATHER SERVICE MEMPHIS TN
700 AM CST WED JAN 18 2017

TNZ002-004-019-021-049-052-054-088>092-181400-
WEST TENNESSEE

CITY           SKY/WX    TMP DP  RH WIND       PRES   REMARKS
MEMPHIS INTL   CLOUDY    47  41  80 E5        30.21R
NWS MEMPHIS      N/A     44 N/A N/A MISG        N/A
JACKSON        CLOUDY    43  42  97 CALM      30.21S
DYERSBURG      CLOUDY    43  37  81 CALM      30.22R
UNION CITY     CLOUDY    43  43 100 CALM      30.21R
PARIS          CLOUDY    39  37  93 CALM      30.20S
$$

TNZ008-025-027-028-033-062-065-066-181400-
NORTH MIDDLE TENNESSEE

CITY           SKY/WX    TMP DP  RH WIND       PRES   REMARKS
NASHVILLE      CLOUDY    45  39  79 NW6       30.22R
CLARKSVILLE    CLOUDY    44  38  79 NE3       30.21S
SMYRNA         CLOUDY    45  42  89 N8        30.22R
CROSSVILLE     CLOUDY    44  41  89 W7        30.18R
$$

TNZ061-075-076-078-094-096-097-181400-
SOUTH MIDDLE TENNESSEE

CITY           SKY/WX    TMP DP  RH WIND       PRES   REMARKS
TULLAHOMA      CLOUDY    45  43  93 N3        30.19S
WINCHESTER     CLOUDY    46  45  93 NW5       30.19R
MCMINNVILLE    CLOUDY    46  45  93 CALM      30.19S
COLUMBIA       CLOUDY    46  46 100 CALM      30.18S
SHELBYVILLE    CLOUDY    48  45  87 NE7       30.20S
$$

TNZ017-018-042-046-047-181400-
NORTHEAST TENNESSEE

CITY           SKY/WX    TMP DP  RH WIND       PRES   REMARKS
TRI CITIES     MOCLDY    50  44  80 W8        30.11R
$$

TNZ012-013-036-069-073-074-181400-
CENTRAL EAST TENNESSEE

CITY           SKY/WX    TMP DP  RH WIND       PRES   REMARKS
KNOXVILLE      NOT AVBL
OAK RIDGE      PTCLDY    49  43  80 SW5       30.18R
GATLINBURG     PTCLDY    50  46  87 W8        30.15R
$$

TNZ083-085-099-181400-
SOUTHEAST TENNESSEE

CITY           SKY/WX    TMP DP  RH WIND       PRES   REMARKS
CHATTANOOGA    MOCLDY    57  49  74 NW3       30.16R
$$

SKY/WX REPORTED AS FAIR MEANS FEW OR NO CLOUDS BELOW
12 THOUSAND FEET.





USA.gov is the U.S. government's official web portal to all federal, state and local government web resources and services.